STARLINK-3812, 52346

Orbit data source: Space-Track

STARLINK-3812, 52346 is a payload satellite owned by SpaceX/Seattle (US) in LEO that was launched on Fri, 29 Apr 2022 UTC via an FALCON 9 launch vehicle from the Air Force Eastern Test Range (AFETR). Payload-class satellites include a variety of spacecraft equipped with specific instruments for various scientific and technological missions. These include communications satellites like Starlink; space stations such as the ISS; scientific satellites like the Hubble; Earth observation satellites from companies like Planet Labs, Umbra, and HawkEye 360; GPS; miniature CubeSats for education and research; and military/defense satellites.

Loading next visibility...
Identifier
52346, 2022-045R
Orbit
LEO
Country
Flag of USUS
Related business
Manufacturer
SpaceX/Seattle
Mission
Operational Commercial Communications
Bus & Motor
STARLINK, Unknown motor
Mass
297 kg wet, ~275 kg dry
Launch date (UTC)
2022-04-29 (4 years ago)
Launch vehicle
FALCON 9
Launch site
Air Force Eastern Test Range (AFETR)
Object type
Payload
Rocket body
Debris
Shape & HBR
Box + 1 Pan, 10.1 m
Radar Cross Section
11.087 m², Large (>1 m²)

Expand to show TLE details & history
Last TLE update: 3 days ago

TLE from 3 days ago
0 STARLINK-3812
1 52346U 22045R   26170.51927793  .00000120  00000-0  25624-4 0  9998
2 52346  53.1624 101.8921 0001748  90.0873 270.0319 15.08832267231158
Epoch: 2026-06-19T12:27Z
TLE epoch observation values (Epoch: 2026-06-19T12:27:45.613Z)
Latitude
0.00002°
Longitude
7.20497°
Altitude
540.658 km
Speed
7.593 km/s
True Right ascension
06h 47m 34s
True Declination
0° 00' 00"
Sunlit
Object was in daylight at epoch
Visualization orbit readout
Latitude
Unknown
Longitude
Unknown
Altitude
Unknown
Speed
Unknown
Apparent Right ascension
Unknown
Apparent Declination
Unknown
Sunlit
N/A
Visualization observer readout
Local Sidereal Time
21:42:42
Azimuth
Unknown
Elevation
Unknown
Doppler factor
Unknown
Orbital elements
Apogee altitude
541.23 km
Perigee altitude
538.811 km
Semi-major axis
6,918.158 km
Eccentricity
0.00017
Inclination
53.1624°
RAAN
101.8921°
Arg. of periapsis
90.0873°
True anomaly
270.01187°
Mean anomaly
270.0319°
Eccentric anomaly
270.02188°
Mean motion
3.77188 °/min
Orbital period
95.44 mins
BSTAR
0.000025624
Loading maneuver chart data...
Computing Atmospheric mass density...
Loading historical data...
Loading historical data...
Loading historical data...
Loading historical data...
Loading historical data...
Loading historical data...
Loading historical data...

Documentation

Showing up to 5 results
|